Regional Weather Roundup
Issued by NWS Cleveland, OH

Home | Current Version | Previous Version | Graphics & Text | Print | Product List | Glossary On
Versions: 1 2 3 4 5 6 7 8 9 10 11 12 13 14 15 16 17 18 19 20 21 22 23 24 25 26 27 28 29 30 31 32 33 34 35 36 37 38 39 40 41 42 43 44 45 46 47 48 49 50
000
ASUS41 KCLE 221502
RWRCLE
OHIO REGIONAL WEATHER ROUNDUP
NATIONAL WEATHER SERVICE CLEVELAND, OH
1100 AM EDT FRI MAY 22 2015

NOTE: "FAIR" INDICATES FEW OR NO CLOUDS BELOW 12,000 FEET WITH NO
SIGNIFICANT WEATHER AND/OR OBSTRUCTIONS TO VISIBILITY.

OHZ001>008-015>018-024>027-034-035-043-044-221600-
   NORTHWEST OHIO

CITY           SKY/WX    TMP DP  RH WIND       PRES   REMARKS
DEFIANCE       SUNNY     63  31  30 NE7       30.18R
FINDLAY        SUNNY     63  35  35 N6        30.17R
TOLEDO EXPRESS SUNNY     61  26  26 N12       30.17R
TOLEDO EXEC    SUNNY     62  24  23 N9        30.18R
LIMA           SUNNY     60  44  55 VRB5      30.18R
$$

OHZ009>014-019>023-028>033-038-089-221600-
   NORTHEAST OHIO

CITY           SKY/WX    TMP DP  RH WIND       PRES   REMARKS
CLE-HOPKINS    MOSUNNY   57  37  47 N10       30.17R
CLE-LAKEFRONT  SUNNY     55  36  48 NW9       30.15R
CUY CO. ARPT   MOSUNNY   57  34  41 N9        30.15R
LORAIN-ELYRIA  PTSUNNY   58  34  40 N10       30.15R
ASHTABULA      MOSUNNY   52  31  44 N12G21    30.13R
AKRON-CANTON   MOSUNNY   62  43  49 N14       30.12S
WOOSTER        SUNNY     62  40  44 NW16      30.15R
MANSFIELD      SUNNY     61  41  47 NW13      30.16R
YOUNGSTOWN     PTSUNNY   54  45  71 W13       30.12R
$$

OHZ042-051>053-060>062-070>072-077>081-221600-
  SOUTHWEST OHIO

CITY           SKY/WX    TMP DP  RH WIND       PRES   REMARKS
CINC-COVINGTON NOT AVBL
CINC-LUNKEN    SUNNY     65  46  50 W10       30.23S
HAMILTON       SUNNY     64  48  56 SW6       30.23R
DAYTON         MOSUNNY   66  48  52 SW9       30.19S
WRIGHT-PAT AFB SUNNY     62  48  59 SW9       30.19R
DAYTON GENERAL SUNNY     61  48  62 SW9       30.20R
WILMINGTON     SUNNY     63  46  54 W12       30.21R
$$

OHZ036-037-039>041-045>050-054>059-063>069-073>076-082>088-221600-
  CENTRAL AND SOUTHEAST OHIO

CITY           SKY/WX    TMP DP  RH WIND       PRES   REMARKS
COLUMBUS       MOSUNNY   61  45  55 CALM      30.18R
OSU AIRPORT    SUNNY     63  45  51 W9        30.18R
BOLTON FIELD   SUNNY     63  48  59 SW9       30.18S
RICKENBACK AFB NOT AVBL
NEWARK         MOSUNNY   61  49  64 SW8       30.17R
MARION         SUNNY     60  44  55 NW12      30.18R
LANCASTER      SUNNY     62  45  53 SW9       30.19S
ZANESVILLE     MOSUNNY   61  45  55 SW8       30.17R
NEW PHILLY     MOSUNNY   62  44  51 W6        30.15R
$$



USA.gov is the U.S. government's official web portal to all federal, state and local government web resources and services.